| time (UTC) | temp F | wind direction | speed MPH | gust MPH | rain 1hr in | rain 24hr in | rain mn in | humidity % | barometer mb |
| 20260904193629 | 86 | 100 | 3.0 | 10.0 | 0.00 | 0.00 | 0.00 | 80 | 1015.4 |
| 20260904193129 | 87 | 120 | 3.0 | 10.0 | 0.00 | 0.00 | 0.00 | 77 | 1015.3 |
| 20260904192628 | 88 | 126 | 2.0 | 4.0 | 0.00 | 0.00 | 0.00 | 75 | 1015.1 |
| 20260904192129 | 88 | 129 | 2.0 | 7.0 | 0.00 | 0.00 | 0.00 | 71 | 1015.0 |
| 20260904191630 | 89 | 127 | 1.0 | 7.0 | 0.00 | 0.00 | 0.00 | 72 | 1015.1 |
| 20260904191130 | 89 | 112 | 1.0 | 4.0 | 0.00 | 0.00 | 0.00 | 72 | 1015.2 |
| 20260904190628 | 89 | 112 | 1.0 | 4.0 | 0.00 | 0.00 | 0.00 | 72 | 1015.2 |
| 20260904190128 | 89 | 112 | 1.0 | 4.0 | 0.00 | 0.00 | 0.00 | 71 | 1015.2 |
| 20260904185629 | 89 | 111 | 2.0 | 4.0 | 0.00 | 0.00 | 0.00 | 71 | 1015.2 |
| 20260904185129 | 89 | 106 | 1.0 | 4.0 | 0.00 | 0.00 | 0.00 | 72 | 1015.3 |
| 20260904184129 | 89 | 65 | 3.0 | 5.0 | 0.00 | 0.00 | 0.00 | 72 | 1015.3 |
| 20260904183630 | 89 | 64 | 3.0 | 5.0 | 0.00 | 0.00 | 0.00 | 69 | 1015.4 |
| 20260904183132 | 89 | 65 | 4.0 | 8.0 | 0.00 | 0.00 | 0.00 | 71 | 1015.4 |
| 20260904182633 | 89 | 63 | 4.0 | 8.0 | 0.00 | 0.00 | 0.00 | 71 | 1015.4 |
| 20260904182133 | 89 | 69 | 3.0 | 9.0 | 0.00 | 0.00 | 0.00 | 71 | 1015.5 |
| 20260904181135 | 90 | 141 | 1.0 | 5.0 | 0.00 | 0.00 | 0.00 | 70 | 1015.6 |
| 20260904180633 | 90 | 141 | 1.0 | 4.0 | 0.00 | 0.00 | 0.00 | 69 | 1015.5 |
| 20260904180135 | 89 | 141 | 2.0 | 6.0 | 0.00 | 0.00 | 0.00 | 69 | 1015.7 |
| 20260904175626 | 89 | 141 | 2.0 | 5.0 | 0.00 | 0.00 | 0.00 | 69 | 1015.7 |
| 20260904175127 | 89 | 152 | 2.0 | 5.0 | 0.00 | 0.00 | 0.00 | 68 | 1015.7 |
| 20260904174630 | 90 | 167 | 2.0 | 7.0 | 0.00 | 0.00 | 0.00 | 69 | 1015.8 |
| 20260904173627 | 90 | 152 | 2.0 | 5.0 | 0.00 | 0.00 | 0.00 | 65 | 1015.9 |
| 20260904173124 | 91 | 174 | 2.0 | 7.0 | 0.00 | 0.00 | 0.00 | 64 | 1016.0 |
| 20260904172623 | 91 | 161 | 2.0 | 7.0 | 0.00 | 0.00 | 0.00 | 65 | 1016.1 |
| 20260904171625 | 90 | 89 | 2.0 | 6.0 | 0.00 | 0.00 | 0.00 | 67 | 1016.2 |
| 20260904171126 | 91 | 94 | 2.0 | 5.0 | 0.00 | 0.00 | 0.00 | 69 | 1016.2 |
| 20260904170624 | 90 | 139 | 2.0 | 5.0 | 0.00 | 0.00 | 0.00 | 67 | 1016.2 |
| 20260904165112 | 90 | 83 | 3.0 | 6.0 | 0.00 | 0.00 | 0.00 | 68 | 1016.4 |
| 20260904164613 | 89 | 37 | 2.0 | 6.0 | 0.00 | 0.00 | 0.00 | 69 | 1016.6 |
| 20260904163606 | 89 | 184 | 3.0 | 7.0 | 0.00 | 0.00 | 0.00 | 73 | 1016.8 |
| 20260904163112 | 89 | 188 | 4.0 | 12.0 | 0.00 | 0.00 | 0.00 | 71 | 1016.8 |
| 20260904162610 | 88 | 187 | 4.0 | 12.0 | 0.00 | 0.00 | 0.00 | 71 | 1016.8 |
| 20260904161612 | 88 | 189 | 3.0 | 6.0 | 0.00 | 0.00 | 0.00 | 73 | 1017.1 |
| 20260904161112 | 88 | 117 | 2.0 | 4.0 | 0.00 | 0.00 | 0.00 | 73 | 1017.2 |
| 20260904160608 | 87 | 116 | 2.0 | 7.0 | 0.00 | 0.00 | 0.00 | 76 | 1017.2 |
| 20260904160110 | 88 | 114 | 2.0 | 10.0 | 0.00 | 0.00 | 0.00 | 73 | 1017.1 |
| 20260904155107 | 88 | 73 | 3.0 | 9.0 | 0.00 | 0.00 | 0.00 | 75 | 1017.2 |
| 20260904154603 | 87 | 159 | 2.0 | 6.0 | 0.00 | 0.00 | 0.00 | 73 | 1017.2 |
| 20260904153604 | 88 | 107 | 2.0 | 4.0 | 0.00 | 0.00 | 0.00 | 73 | 1017.3 |
| 20260904153102 | 88 | 105 | 2.0 | 7.0 | 0.00 | 0.00 | 0.00 | 77 | 1017.2 |
| 20260904152104 | 87 | 147 | 2.0 | 5.0 | 0.00 | 0.00 | 0.00 | 73 | 1017.2 |
| 20260904151602 | 87 | 56 | 2.0 | 5.0 | 0.00 | 0.00 | 0.00 | 76 | 1017.2 |
| 20260904151102 | 86 | 41 | 3.0 | 6.0 | 0.00 | 0.00 | 0.00 | 77 | 1017.1 |
| 20260904150113 | 86 | 220 | 2.0 | 4.0 | 0.00 | 0.00 | 0.00 | 77 | 1017.1 |
| 20260904145608 | 85 | 208 | 2.0 | 5.0 | 0.00 | 0.00 | 0.00 | 78 | 1017.1 |
| 20260904145102 | 85 | 208 | 2.0 | 5.0 | 0.00 | 0.00 | 0.00 | 79 | 1017.2 |
| 20260904144602 | 85 | 89 | 2.0 | 6.0 | 0.00 | 0.00 | 0.00 | 79 | 1017.2 |
| 20260904144101 | 85 | 87 | 2.0 | 6.0 | 0.00 | 0.00 | 0.00 | 81 | 1017.1 |
| 20260904143603 | 85 | 87 | 2.0 | 7.0 | 0.00 | 0.00 | 0.00 | 80 | 1017.0 |
| 20260904142100 | 83 | 181 | 3.0 | 9.0 | 0.00 | 0.00 | 0.00 | 85 | 1017.2 |
| 20260904141601 | 82 | 184 | 2.0 | 9.0 | 0.00 | 0.00 | 0.00 | 90 | 1017.0 |
| 20260904141100 | 80 | 175 | 2.0 | 6.0 | 0.00 | 0.00 | 0.00 | 94 | 1017.0 |
| 20260904140600 | 80 | 158 | 2.0 | 4.0 | 0.00 | 0.00 | 0.00 | 95 | 1017.0 |
| 20260904135601 | 79 | 341 | 1.0 | 4.0 | 0.00 | 0.00 | 0.00 | 96 | 1017.1 |
| 20260904135055 | 79 | 341 | 1.0 | 4.0 | 0.00 | 0.00 | 0.00 | 96 | 1017.0 |
| 20260904134550 | 79 | 130 | 1.0 | 4.0 | 0.00 | 0.00 | 0.00 | 96 | 1017.0 |
| 20260904134039 | 79 | 127 | 2.0 | 4.0 | 0.00 | 0.00 | 0.00 | 96 | 1017.0 |
| 20260904133033 | 79 | 127 | 1.0 | 3.0 | 0.00 | 0.00 | 0.00 | 96 | 1017.1 |
| 20260904132029 | 78 | 127 | 1.0 | 2.0 | 0.00 | 0.00 | 0.00 | 96 | 1016.8 |
| 20260904131529 | 78 | 127 | 0.0 | 2.0 | 0.00 | 0.00 | 0.00 | 96 | 1017.0 |
| 20260904131029 | 78 | 127 | 0.0 | 2.0 | 0.00 | 0.00 | 0.00 | 96 | 1016.9 |
| 20260904130526 | 78 | 127 | 1.0 | 2.0 | 0.00 | 0.00 | 0.00 | 96 | 1016.8 |
| 20260904130027 | 78 | 127 | 1.0 | 3.0 | 0.00 | 0.00 | 0.00 | 96 | 1016.9 |
| 20260904125522 | 78 | 127 | 1.0 | 3.0 | 0.00 | 0.00 | 0.00 | 96 | 1016.9 |
| 20260904124528 | 78 | 127 | 1.0 | 3.0 | 0.00 | 0.00 | 0.00 | 96 | 1017.0 |
| 20260904124020 | 78 | 127 | 1.0 | 3.0 | 0.00 | 0.00 | 0.00 | 96 | 1016.9 |
| 20260904123520 | 78 | 127 | 1.0 | 2.0 | 0.00 | 0.00 | 0.00 | 96 | 1016.8 |
| 20260904123020 | 78 | 127 | 1.0 | 2.0 | 0.00 | 0.00 | 0.00 | 96 | 1016.9 |
| 20260904122016 | 77 | 127 | 1.0 | 3.0 | 0.00 | 0.00 | 0.00 | 96 | 1016.8 |
| 20260904121514 | 77 | 127 | 0.0 | 0.0 | 0.00 | 0.00 | 0.00 | 96 | 1017.0 |
| 20260904121012 | 77 | 127 | 0.0 | 0.0 | 0.00 | 0.00 | 0.00 | 96 | 1016.8 |
| 20260904120510 | 77 | 127 | 0.0 | 0.0 | 0.00 | 0.00 | 0.00 | 96 | 1016.8 |
| 20260904120010 | 77 | 127 | 0.0 | 0.0 | 0.00 | 0.00 | 0.00 | 96 | 1016.7 |
| 20260904115513 | 77 | 127 | 0.0 | 0.0 | 0.00 | 0.00 | 0.00 | 96 | 1016.7 |
| 20260904115012 | 77 | 127 | 0.0 | 0.0 | 0.00 | 0.00 | 0.00 | 96 | 1016.6 |
| 20260904113502 | 77 | 127 | 0.0 | 0.0 | 0.00 | 0.00 | 0.00 | 96 | 1016.4 |
| 20260904113007 | 77 | 127 | 0.0 | 0.0 | 0.00 | 0.00 | 0.00 | 96 | 1016.3 |
| 20260904112504 | 76 | 127 | 0.0 | 0.0 | 0.00 | 0.00 | 0.00 | 96 | 1016.3 |
| 20260904112001 | 76 | 127 | 0.0 | 0.0 | 0.00 | 0.00 | 0.00 | 96 | 1016.2 |
| 20260904111503 | 76 | 127 | 0.0 | 0.0 | 0.00 | 0.00 | 0.00 | 96 | 1016.2 |
| 20260904111002 | 76 | 127 | 0.0 | 0.0 | 0.00 | 0.00 | 0.00 | 96 | 1016.0 |
| 20260904110503 | 76 | 127 | 0.0 | 0.0 | 0.00 | 0.00 | 0.00 | 96 | 1016.0 |
| 20260904105512 | 76 | 127 | 0.0 | 0.0 | 0.00 | 0.00 | 0.00 | 96 | 1016.0 |
| 20260904105008 | 76 | 127 | 0.0 | 0.0 | 0.00 | 0.00 | 0.00 | 96 | 1016.0 |
| 20260904104504 | 77 | 127 | 0.0 | 0.0 | 0.00 | 0.00 | 0.00 | 96 | 1016.0 |
| 20260904104002 | 77 | 127 | 0.0 | 1.0 | 0.00 | 0.00 | 0.00 | 96 | 1016.0 |
| 20260904103003 | 77 | 127 | 0.0 | 2.0 | 0.00 | 0.00 | 0.00 | 96 | 1015.9 |
| 20260904101500 | 77 | 127 | 0.0 | 1.0 | 0.00 | 0.00 | 0.00 | 96 | 1015.8 |
| 20260904101005 | 77 | 127 | 0.0 | 1.0 | 0.00 | 0.00 | 0.00 | 96 | 1015.8 |
| 20260904100458 | 77 | 127 | 0.0 | 2.0 | 0.00 | 0.00 | 0.00 | 96 | 1015.8 |
| 20260904095958 | 77 | 127 | 0.0 | 2.0 | 0.00 | 0.00 | 0.00 | 95 | 1015.7 |
| 20260904095504 | 77 | 127 | 0.0 | 2.0 | 0.00 | 0.00 | 0.00 | 95 | 1015.7 |
| 20260904094959 | 77 | 127 | 0.0 | 2.0 | 0.00 | 0.00 | 0.00 | 95 | 1015.8 |
| 20260904094500 | 77 | 127 | 0.0 | 2.0 | 0.00 | 0.00 | 0.00 | 95 | 1015.9 |
| 20260904093955 | 77 | 127 | 1.0 | 2.0 | 0.00 | 0.00 | 0.00 | 95 | 1015.8 |
| 20260904092955 | 77 | 127 | 1.0 | 2.0 | 0.00 | 0.00 | 0.00 | 95 | 1015.7 |
| 20260904092456 | 77 | 127 | 1.0 | 2.0 | 0.00 | 0.00 | 0.00 | 95 | 1015.7 |
| 20260904091955 | 77 | 127 | 1.0 | 3.0 | 0.00 | 0.00 | 0.00 | 95 | 1015.7 |
| 20260904091451 | 77 | 127 | 1.0 | 3.0 | 0.00 | 0.00 | 0.00 | 95 | 1015.7 |
| 20260904085951 | 77 | 127 | 1.0 | 3.0 | 0.00 | 0.00 | 0.00 | 95 | 1015.6 |
| 20260904085449 | 77 | 127 | 0.0 | 2.0 | 0.00 | 0.00 | 0.00 | 95 | 1015.6 |
| 20260904084948 | 77 | 127 | 0.0 | 2.0 | 0.00 | 0.00 | 0.00 | 95 | 1015.6 |
| 20260904084447 | 77 | 127 | 0.0 | 0.0 | 0.00 | 0.00 | 0.00 | 95 | 1015.6 |
| 20260904083949 | 77 | 127 | 0.0 | 2.0 | 0.00 | 0.00 | 0.00 | 95 | 1015.5 |
| 20260904083449 | 77 | 127 | 1.0 | 3.0 | 0.00 | 0.00 | 0.00 | 95 | 1015.4 |
| 20260904082949 | 77 | 127 | 0.0 | 3.0 | 0.00 | 0.00 | 0.00 | 95 | 1015.4 |
| 20260904082449 | 77 | 127 | 0.0 | 0.0 | 0.00 | 0.00 | 0.00 | 95 | 1015.4 |
| 20260904081948 | 77 | 127 | 0.0 | 0.0 | 0.00 | 0.00 | 0.00 | 95 | 1015.6 |
| 20260904080949 | 77 | 127 | 0.0 | 0.0 | 0.00 | 0.00 | 0.00 | 95 | 1015.6 |
| 20260904080450 | 77 | 127 | 0.0 | 0.0 | 0.00 | 0.00 | 0.00 | 95 | 1015.6 |
| 20260904075950 | 77 | 127 | 0.0 | 0.0 | 0.00 | 0.00 | 0.00 | 95 | 1015.6 |
| 20260904075448 | 77 | 127 | 0.0 | 0.0 | 0.00 | 0.00 | 0.00 | 95 | 1015.6 |
| 20260904074944 | 77 | 127 | 0.0 | 0.0 | 0.00 | 0.00 | 0.00 | 95 | 1015.6 |
| 20260904073944 | 77 | 127 | 0.0 | 0.0 | 0.00 | 0.00 | 0.00 | 94 | 1015.6 |
| 20260904072941 | 77 | 127 | 0.0 | 0.0 | 0.00 | 0.00 | 0.00 | 94 | 1015.7 |
| 20260904072443 | 77 | 127 | 0.0 | 0.0 | 0.00 | 0.00 | 0.00 | 94 | 1015.7 |
| 20260904071945 | 77 | 127 | 0.0 | 0.0 | 0.00 | 0.00 | 0.00 | 94 | 1015.6 |
| 20260904071443 | 77 | 127 | 0.0 | 0.0 | 0.00 | 0.00 | 0.00 | 94 | 1015.6 |
| 20260904070947 | 77 | 127 | 0.0 | 0.0 | 0.00 | 0.00 | 0.00 | 94 | 1015.5 |
| 20260904065945 | 77 | 127 | 0.0 | 0.0 | 0.00 | 0.00 | 0.00 | 94 | 1015.5 |
| 20260904065439 | 77 | 127 | 0.0 | 0.0 | 0.00 | 0.00 | 0.00 | 94 | 1015.5 |
| 20260904064432 | 77 | 127 | 0.0 | 0.0 | 0.00 | 0.00 | 0.00 | 94 | 1015.4 |
| 20260904063935 | 77 | 127 | 0.0 | 0.0 | 0.00 | 0.00 | 0.00 | 94 | 1015.5 |
| 20260904063435 | 78 | 127 | 0.0 | 0.0 | 0.00 | 0.00 | 0.00 | 94 | 1015.5 |
| 20260904062930 | 78 | 127 | 0.0 | 0.0 | 0.00 | 0.00 | 0.00 | 94 | 1015.6 |
| 20260904062430 | 78 | 127 | 0.0 | 0.0 | 0.00 | 0.00 | 0.00 | 94 | 1015.6 |
| 20260904061930 | 78 | 127 | 0.0 | 0.0 | 0.00 | 0.00 | 0.00 | 94 | 1015.7 |
| 20260904061430 | 78 | 127 | 0.0 | 0.0 | 0.00 | 0.00 | 0.00 | 94 | 1015.6 |
| 20260904060929 | 78 | 127 | 0.0 | 0.0 | 0.00 | 0.00 | 0.00 | 94 | 1015.6 |
| 20260904055426 | 78 | 127 | 1.0 | 2.0 | 0.00 | 0.00 | 0.00 | 93 | 1015.8 |
| 20260904054918 | 78 | 127 | 0.0 | 0.0 | 0.00 | 0.00 | 0.00 | 94 | 1015.9 |
| 20260904054415 | 78 | 127 | 0.0 | 0.0 | 0.00 | 0.00 | 0.00 | 93 | 1015.9 |
| 20260904053914 | 78 | 127 | 0.0 | 1.0 | 0.00 | 0.00 | 0.00 | 93 | 1015.9 |
| 20260904053413 | 78 | 127 | 0.0 | 1.0 | 0.00 | 0.00 | 0.00 | 93 | 1015.9 |
| 20260904052913 | 78 | 127 | 0.0 | 2.0 | 0.00 | 0.00 | 0.00 | 93 | 1016.0 |
| 20260904051912 | 78 | 127 | 1.0 | 2.0 | 0.00 | 0.00 | 0.00 | 93 | 1016.1 |
| 20260904051410 | 78 | 127 | 0.0 | 2.0 | 0.00 | 0.00 | 0.00 | 93 | 1016.1 |
| 20260904050909 | 78 | 127 | 0.0 | 2.0 | 0.00 | 0.00 | 0.00 | 93 | 1016.1 |
| 20260904050405 | 78 | 127 | 1.0 | 2.0 | 0.00 | 0.00 | 0.00 | 93 | 1016.2 |
| 20260904045907 | 79 | 127 | 1.0 | 4.0 | 0.00 | 0.00 | 0.00 | 93 | 1016.2 |
| 20260904044907 | 79 | 127 | 1.0 | 3.0 | 0.00 | 0.00 | 0.00 | 93 | 1016.3 |
| 20260904044408 | 79 | 127 | 1.0 | 2.0 | 0.00 | 0.00 | 0.00 | 93 | 1016.3 |
| 20260904043906 | 79 | 127 | 1.0 | 3.0 | 0.00 | 0.00 | 0.00 | 93 | 1016.3 |
| 20260904043406 | 79 | 127 | 1.0 | 3.0 | 0.00 | 0.00 | 0.00 | 92 | 1016.3 |
| 20260904042857 | 79 | 127 | 0.0 | 2.0 | 0.00 | 0.00 | 0.00 | 92 | 1016.2 |
| 20260904042358 | 79 | 127 | 0.0 | 2.0 | 0.00 | 0.00 | 0.00 | 92 | 1016.3 |
| 20260904041857 | 79 | 127 | 0.0 | 2.0 | 0.00 | 0.00 | 0.00 | 92 | 1016.4 |
| 20260904041355 | 79 | 127 | 0.0 | 2.0 | 0.00 | 0.00 | 0.00 | 92 | 1016.3 |
| 20260904040350 | 79 | 127 | 0.0 | 2.0 | 0.00 | 0.00 | 0.00 | 92 | 1016.2 |
| 20260904035847 | 79 | 127 | 1.0 | 2.0 | 0.00 | 0.00 | 0.00 | 92 | 1016.2 |
| 20260904035349 | 79 | 127 | 1.0 | 3.0 | 0.00 | 0.00 | 0.00 | 92 | 1016.3 |
| 20260904034848 | 79 | 127 | 2.0 | 5.0 | 0.00 | 0.00 | 0.00 | 92 | 1016.3 |
| 20260904034347 | 80 | 127 | 2.0 | 5.0 | 0.00 | 0.00 | 0.00 | 92 | 1016.3 |
| 20260904032845 | 80 | 130 | 1.0 | 4.0 | 0.00 | 0.00 | 0.00 | 92 | 1016.2 |
| 20260904032344 | 80 | 130 | 2.0 | 4.0 | 0.00 | 0.00 | 0.00 | 92 | 1016.2 |
| 20260904031843 | 80 | 130 | 2.0 | 4.0 | 0.00 | 0.00 | 0.00 | 92 | 1016.3 |
| 20260904031344 | 80 | 130 | 2.0 | 4.0 | 0.00 | 0.00 | 0.00 | 91 | 1016.5 |
| 20260904030344 | 80 | 130 | 2.0 | 4.0 | 0.00 | 0.00 | 0.00 | 91 | 1016.5 |
| 20260904025845 | 80 | 130 | 1.0 | 3.0 | 0.00 | 0.00 | 0.00 | 91 | 1016.6 |
| 20260904025346 | 80 | 130 | 1.0 | 3.0 | 0.00 | 0.00 | 0.00 | 91 | 1016.6 |
| 20260904024839 | 80 | 130 | 1.0 | 3.0 | 0.00 | 0.00 | 0.00 | 91 | 1016.6 |
| 20260904024341 | 80 | 130 | 2.0 | 3.0 | 0.00 | 0.00 | 0.00 | 91 | 1016.6 |
| 20260904023841 | 80 | 130 | 2.0 | 4.0 | 0.00 | 0.00 | 0.00 | 90 | 1016.6 |
| 20260904023342 | 80 | 130 | 1.0 | 4.0 | 0.00 | 0.00 | 0.00 | 90 | 1016.6 |
| 20260904022845 | 80 | 130 | 1.0 | 2.0 | 0.00 | 0.00 | 0.00 | 90 | 1016.6 |
| 20260904022345 | 80 | 130 | 1.0 | 2.0 | 0.00 | 0.00 | 0.00 | 90 | 1016.6 |
| 20260904021848 | 80 | 130 | 1.0 | 2.0 | 0.00 | 0.00 | 0.00 | 90 | 1016.6 |
| 20260904021340 | 81 | 130 | 0.0 | 2.0 | 0.00 | 0.00 | 0.00 | 89 | 1016.7 |
| 20260904020342 | 81 | 130 | 0.0 | 1.0 | 0.00 | 0.00 | 0.00 | 89 | 1016.5 |
| 20260904015842 | 81 | 130 | 0.0 | 1.0 | 0.00 | 0.00 | 0.00 | 88 | 1016.4 |
| 20260904015338 | 81 | 130 | 0.0 | 1.0 | 0.00 | 0.00 | 0.00 | 88 | 1016.4 |
| 20260904014336 | 81 | 130 | 0.0 | 1.0 | 0.00 | 0.00 | 0.00 | 88 | 1016.4 |
| 20260904012834 | 82 | 130 | 0.0 | 0.0 | 0.00 | 0.00 | 0.00 | 87 | 1016.4 |
| 20260904012329 | 82 | 130 | 0.0 | 2.0 | 0.00 | 0.00 | 0.00 | 87 | 1016.4 |
| 20260904011829 | 82 | 130 | 0.0 | 2.0 | 0.00 | 0.00 | 0.00 | 86 | 1016.4 |
| 20260904011333 | 82 | 130 | 0.0 | 2.0 | 0.00 | 0.00 | 0.00 | 86 | 1016.4 |
| 20260904010830 | 82 | 130 | 0.0 | 3.0 | 0.00 | 0.00 | 0.00 | 86 | 1016.3 |
| 20260904010336 | 82 | 130 | 0.0 | 3.0 | 0.00 | 0.00 | 0.00 | 86 | 1016.3 |
| 20260904005836 | 82 | 130 | 1.0 | 3.0 | 0.00 | 0.00 | 0.00 | 85 | 1016.2 |
| 20260904005333 | 82 | 130 | 1.0 | 4.0 | 0.00 | 0.00 | 0.00 | 85 | 1016.1 |
| 20260904004331 | 82 | 130 | 0.0 | 3.0 | 0.00 | 0.00 | 0.00 | 85 | 1016.2 |
| 20260904003828 | 83 | 130 | 0.0 | 2.0 | 0.00 | 0.00 | 0.00 | 84 | 1016.0 |
| 20260904003325 | 83 | 130 | 1.0 | 5.0 | 0.00 | 0.00 | 0.00 | 84 | 1015.9 |
| 20260904002821 | 83 | 130 | 1.0 | 5.0 | 0.00 | 0.00 | 0.00 | 84 | 1015.9 |
| 20260904002321 | 83 | 130 | 1.0 | 3.0 | 0.00 | 0.00 | 0.00 | 83 | 1015.9 |
| 20260904001826 | 83 | 130 | 1.0 | 4.0 | 0.00 | 0.00 | 0.00 | 83 | 1016.0 |
| 20260904001325 | 83 | 130 | 1.0 | 4.0 | 0.00 | 0.00 | 0.00 | 82 | 1015.9 |
| 20260904000819 | 83 | 117 | 1.0 | 4.0 | 0.00 | 0.00 | 0.00 | 82 | 1015.9 |
| 20260904000318 | 84 | 118 | 2.0 | 7.0 | 0.00 | 0.00 | 0.00 | 81 | 1015.8 |
| 20260903235817 | 84 | 118 | 2.0 | 7.0 | 0.00 | 0.00 | 0.00 | 81 | 1015.7 |
| 20260903234812 | 85 | 110 | 1.0 | 4.0 | 0.00 | 0.00 | 0.00 | 79 | 1015.6 |
| 20260903234311 | 85 | 110 | 1.0 | 4.0 | 0.00 | 0.00 | 0.00 | 79 | 1015.6 |
| 20260903233818 | 85 | 71 | 2.0 | 8.0 | 0.00 | 0.00 | 0.00 | 79 | 1015.6 |
| 20260903233314 | 85 | 70 | 2.0 | 8.0 | 0.00 | 0.00 | 0.00 | 78 | 1015.5 |
| 20260903232313 | 85 | 79 | 3.0 | 9.0 | 0.00 | 0.00 | 0.00 | 77 | 1015.4 |
| 20260903231812 | 85 | 65 | 2.0 | 6.0 | 0.00 | 0.00 | 0.00 | 77 | 1015.3 |
| 20260903231307 | 85 | 51 | 2.0 | 6.0 | 0.00 | 0.00 | 0.00 | 77 | 1015.2 |
| 20260903230805 | 86 | 133 | 2.0 | 6.0 | 0.00 | 0.00 | 0.00 | 77 | 1015.2 |
| 20260903230305 | 86 | 112 | 3.0 | 6.0 | 0.00 | 0.00 | 0.00 | 76 | 1015.1 |
| 20260903225804 | 86 | 91 | 3.0 | 11.0 | 0.00 | 0.00 | 0.00 | 75 | 1015.1 |
| 20260903225306 | 86 | 70 | 3.0 | 11.0 | 0.00 | 0.00 | 0.00 | 75 | 1015.0 |
| 20260903224803 | 86 | 62 | 3.0 | 11.0 | 0.00 | 0.00 | 0.00 | 75 | 1015.0 |
| 20260903224307 | 86 | 98 | 1.0 | 9.0 | 0.00 | 0.00 | 0.00 | 75 | 1014.9 |
| 20260903223803 | 86 | 104 | 1.0 | 4.0 | 0.00 | 0.00 | 0.00 | 75 | 1015.0 |
| 20260903223254 | 87 | 104 | 1.0 | 4.0 | 0.00 | 0.00 | 0.00 | 75 | 1015.0 |
| 20260903222233 | 87 | 67 | 2.0 | 3.0 | 0.00 | 0.00 | 0.00 | 74 | 1014.9 |
| 20260903221734 | 87 | 67 | 2.0 | 8.0 | 0.00 | 0.00 | 0.00 | 73 | 1014.8 |
| 20260903220240 | 88 | 84 | 4.0 | 11.0 | 0.00 | 0.00 | 0.00 | 71 | 1015.1 |
| 20260903215736 | 89 | 123 | 3.0 | 10.0 | 0.00 | 0.00 | 0.00 | 69 | 1015.0 |
| 20260903215233 | 90 | 108 | 3.0 | 10.0 | 0.00 | 0.00 | 0.00 | 69 | 1015.0 |
| 20260903214734 | 91 | 112 | 3.0 | 7.0 | 0.00 | 0.00 | 0.00 | 68 | 1014.9 |
| 20260903214231 | 91 | 136 | 2.0 | 7.0 | 0.00 | 0.00 | 0.00 | 68 | 1014.7 |
| 20260903213730 | 91 | 73 | 2.0 | 7.0 | 0.00 | 0.00 | 0.00 | 67 | 1014.8 |
| 20260903213233 | 90 | 118 | 3.0 | 11.0 | 0.00 | 0.00 | 0.00 | 67 | 1014.9 |
| 20260903212229 | 92 | 73 | 3.0 | 11.0 | 0.00 | 0.00 | 0.00 | 64 | 1014.9 |
| 20260903211231 | 91 | 58 | 3.0 | 8.0 | 0.00 | 0.00 | 0.00 | 69 | 1014.8 |
| 20260903210730 | 90 | 55 | 3.0 | 6.0 | 0.00 | 0.00 | 0.00 | 70 | 1014.9 |
| 20260903210235 | 89 | 49 | 3.0 | 6.0 | 0.00 | 0.00 | 0.00 | 70 | 1014.8 |
| 20260903205738 | 89 | 58 | 5.0 | 10.0 | 0.00 | 0.00 | 0.00 | 69 | 1014.8 |
| 20260903205252 | 89 | 32 | 6.0 | 12.0 | 0.00 | 0.00 | 0.00 | 68 | 1014.9 |
| 20260903204748 | 90 | 46 | 7.0 | 14.0 | 0.00 | 0.00 | 0.00 | 66 | 1014.9 |
| 20260903204248 | 92 | 60 | 6.0 | 14.0 | 0.00 | 0.00 | 0.00 | 65 | 1014.9 |
| 20260903203810 | 92 | 56 | 3.0 | 10.0 | 0.00 | 0.00 | 0.00 | 64 | 1015.0 |
| 20260903202756 | 92 | 102 | 3.0 | 10.0 | 0.00 | 0.00 | 0.00 | 64 | 1015.1 |
| 20260903202301 | 92 | 80 | 4.0 | 11.0 | 0.00 | 0.00 | 0.00 | 64 | 1015.2 |
| 20260903201745 | 91 | 119 | 4.0 | 11.0 | 0.00 | 0.00 | 0.00 | 64 | 1015.2 |
| 20260903201248 | 91 | 77 | 3.0 | 10.0 | 0.00 | 0.00 | 0.00 | 64 | 1015.2 |
| 20260903200725 | 91 | 42 | 4.0 | 9.0 | 0.00 | 0.00 | 0.00 | 67 | 1015.1 |
| 20260903200249 | 91 | 15 | 5.0 | 12.0 | 0.00 | 0.00 | 0.00 | 66 | 1015.2 |
| 20260903195210 | 93 | 53 | 4.0 | 10.0 | 0.00 | 0.00 | 0.00 | 64 | 1015.3 |
| 20260903194707 | 93 | 142 | 2.0 | 9.0 | 0.00 | 0.00 | 0.00 | 65 | 1015.3 |
| 20260903194205 | 93 | 135 | 3.0 | 10.0 | 0.00 | 0.00 | 0.00 | 67 | 1015.4 |